Flag for Isle of Man Weather past 2 weeks in Douglas, Isle of Man

Now
57 °F

Sprinkles. Clear.


Feels Like: 53 °F
Forecast: 56 / 61 °F
Wind: 23 mph from East

Location: Isle Of Man / Ronaldsway Airport

Current Time: Jul 4, 2015 at 1:28:05 AM

Latest Report: Jul 4, 2015 at 12:50 AM


Visibility: N/A

Pressure: 30.01 "Hg

Humidity: 88%

Dew point: 54 °F

Location of DouglasLocation

Historic Weather in Douglas — Graph

°F

Douglas temperature yesterday

Maximum temperature yesterday: 68 °F (at 5:50 PM)
Minimum temperature yesterday: 55 °F (at 12:50 AM)
Average temperature yesterday: 62 °F

Past Weeks' High & Low Weather Summary

 TemperatureHumidityPressure
High72 °F (Jun 30, 5:20 PM)100% (Jun 20, 12:50 AM)30.27 "Hg (Jun 20, 12:50 AM)
Low50 °F (Jun 22, 2:50 AM)52% (Jun 22, 2:20 PM)29.77 "Hg (Jul 1, 8:50 AM)
Average58 °F85%30.02 "Hg
* Reported Jun 18 11:50 PM — Jul 3 11:50 PM, Douglas, Weather by CustomWeather, © 2015

Note: Actual official high and low records may vary slightly from our data, if they occured in-between our weather recording intervals... More about our weather records

Advertising

Douglas weather history for previous 24 hours

 ConditionsComfort  
Time TempWeatherWind HumidityBarometerVisibility
11:50 PM
Fri, Jul 3
61 °FSprinkles. Passing clouds.20 mph72%30.04 "HgN/A
10:50 PM61 °FSunny.18 mph72%30.07 "Hg10 mi
9:50 PM64 °FPassing clouds.20 mph68%30.07 "HgN/A
9:20 PM66 °FPassing clouds.18 mph60%30.07 "HgN/A
8:50 PM66 °FSunny.15 mph64%30.07 "Hg10 mi
8:20 PM66 °FSunny.15 mph60%30.09 "Hg10 mi
7:50 PM68 °FSunny.15 mph56%30.09 "Hg10 mi
7:20 PM68 °FSunny.15 mph53%30.12 "Hg10 mi
6:50 PM68 °FSunny.13 mph53%30.12 "Hg10 mi
6:20 PM66 °FSunny.15 mph56%30.12 "Hg10 mi
5:50 PM68 °FSunny.16 mph56%30.15 "Hg10 mi
5:20 PM66 °FSunny.16 mph60%30.15 "Hg10 mi
4:50 PM66 °FPassing clouds.15 mph60%30.18 "HgN/A
4:20 PM66 °FPassing clouds.16 mph60%30.18 "HgN/A
3:50 PM66 °FPassing clouds.16 mph64%30.18 "HgN/A
3:20 PM66 °FSunny.15 mph64%30.21 "Hg10 mi
2:50 PM66 °FPassing clouds.15 mph68%30.21 "HgN/A
2:20 PM64 °FPassing clouds.12 mph73%30.21 "HgN/A
1:50 PM64 °FPassing clouds.12 mph73%30.24 "HgN/A
1:20 PM63 °FPassing clouds.12 mph77%30.24 "HgN/A
12:50 PM63 °FPassing clouds.14 mph77%30.24 "HgN/A
12:20 PM63 °FPassing clouds.10 mph77%30.24 "HgN/A
11:50 AM63 °FPassing clouds.9 mph77%30.27 "HgN/A
11:20 AM61 °FPassing clouds.10 mph83%30.27 "HgN/A
10:50 AM61 °FPassing clouds.9 mph83%30.27 "HgN/A
10:20 AM59 °FPassing clouds.7 mph82%30.27 "HgN/A
9:50 AM59 °FPassing clouds.6 mph88%30.27 "HgN/A
9:20 AM59 °FPartly sunny.7 mph94%30.27 "Hg5 mi
8:50 AM57 °FSleet. Fog.6 mph100%30.27 "Hg3 mi
8:20 AM57 °FFog.3 mph100%30.27 "Hg1 mi
7:50 AM57 °FFog.3 mph94%30.27 "Hg1 mi
7:20 AM55 °FDrizzle. Fog.2 mph100%30.24 "Hg2 mi
6:50 AM55 °FSnow. Fog.7 mph100%30.24 "Hg5 mi
6:20 AM55 °FPartly sunny.5 mph100%30.24 "Hg5 mi
5:50 AM55 °FLow clouds.3 mph100%30.24 "Hg5 mi
5:20 AM55 °FFog.12 mph100%30.24 "Hg0 mi
4:50 AM55 °FFog.3 mph100%30.21 "Hg3 mi
3:50 AM55 °FPassing clouds.6 mph94%30.21 "HgN/A
2:50 AM55 °FClear.1 mph94%30.21 "Hg10 mi
1:50 AM55 °FClear.3 mph94%30.18 "Hg10 mi
Weather by CustomWeather, © 2015

See weather overviewHow to use our weather pages